EJM81 KVNY-KEYW

Flight info

Callsign EJM81
Flight time N/A
Altitude 37000
Route HAYEZ9 BLH EWM KH84I/N0514F390 PLNDR L465 TRESR SNOMN SHAQQ KRAKN1
Aircraft C750/M-SBDE3FGHRWXY/S

Departure

Time 2026-04-30 21:10
Airport Van Nuys Airport (KVNY)

Arrival

Time N/A
Airport Key West International Airport (KEYW)
Time Latitude Longitude Altitude Speed Heading
2026-04-30 21:07 34.21945 -118.49298 810 ft 0 kts 84°
2026-04-30 21:08 34.21946 -118.49297 810 ft 1 kts 84°
2026-04-30 21:08 34.21940 -118.49264 809 ft 8 kts 107°
2026-04-30 21:08 34.21925 -118.49194 808 ft 8 kts 134°
2026-04-30 21:09 34.21881 -118.49154 806 ft 8 kts 100°
2026-04-30 21:09 34.21856 -118.49121 805 ft 8 kts 176°
2026-04-30 21:09 34.21516 -118.49089 794 ft 97 kts 175°
2026-04-30 21:09 34.20633 -118.49003 849 ft 145 kts 175°
2026-04-30 21:10 34.19620 -118.48916 1407 ft 147 kts 174°
2026-04-30 21:10 34.18579 -118.48817 1983 ft 152 kts 177°
2026-04-30 21:10 34.17518 -118.48595 2464 ft 164 kts 160°
2026-04-30 21:10 34.16553 -118.47721 2805 ft 185 kts 131°
2026-04-30 21:11 34.15988 -118.46265 3172 ft 201 kts 103°
2026-04-30 21:11 34.15697 -118.44578 3602 ft 214 kts 99°
2026-04-30 21:11 34.15218 -118.42824 3981 ft 226 kts 102°
2026-04-30 21:11 34.15417 -118.40972 4401 ft 224 kts 58°
2026-04-30 21:12 34.16593 -118.39878 5120 ft 215 kts 17°
2026-04-30 21:12 34.18087 -118.39747 5669 ft 219 kts 357°
2026-04-30 21:12 34.19551 -118.40345 6035 ft 234 kts 334°
2026-04-30 21:12 34.20968 -118.41452 6341 ft 251 kts 330°
2026-04-30 21:13 34.22569 -118.42477 6615 ft 270 kts 338°
2026-04-30 21:13 34.24340 -118.43287 7335 ft 270 kts 346°
2026-04-30 21:13 34.26190 -118.43717 8166 ft 272 kts 353°
2026-04-30 21:13 34.28073 -118.44074 9007 ft 276 kts 352°
2026-04-30 21:14 34.29979 -118.44504 9803 ft 280 kts 351°
2026-04-30 21:14 34.31914 -118.44967 10358 ft 290 kts 351°
2026-04-30 21:14 34.33999 -118.44891 10255 ft 317 kts 15°
2026-04-30 21:14 34.36012 -118.43592 10239 ft 340 kts 37°
2026-04-30 21:15 34.37800 -118.41783 10991 ft 338 kts 40°
2026-04-30 21:15 34.39613 -118.39892 11601 ft 343 kts 39°
2026-04-30 21:15 34.41446 -118.38078 12198 ft 346 kts 38°
2026-04-30 21:15 34.43361 -118.36212 12824 ft 350 kts 38°
2026-04-30 21:16 34.45231 -118.34347 13401 ft 355 kts 39°
2026-04-30 21:16 34.47140 -118.32420 13943 ft 358 kts 38°
2026-04-30 21:16 34.49066 -118.30492 14477 ft 361 kts 38°
2026-04-30 21:16 34.51015 -118.28553 15010 ft 363 kts 38°
2026-04-30 21:17 34.52975 -118.26596 15537 ft 366 kts 38°
2026-04-30 21:17 34.54942 -118.24624 16088 ft 368 kts 38°
2026-04-30 21:17 34.56924 -118.22636 16640 ft 371 kts 38°
2026-04-30 21:17 34.58920 -118.20637 17221 ft 374 kts 38°
2026-04-30 21:18 34.60935 -118.18618 17839 ft 376 kts 38°
2026-04-30 21:18 34.62953 -118.16592 18432 ft 378 kts 38°
2026-04-30 21:18 34.64940 -118.14481 18882 ft 384 kts 43°
2026-04-30 21:18 34.66463 -118.11720 18937 ft 406 kts 62°
2026-04-30 21:19 34.67316 -118.08372 18966 ft 424 kts 75°
2026-04-30 21:19 34.67898 -118.04812 18980 ft 430 kts 76°
2026-04-30 21:19 34.68449 -118.01236 18977 ft 432 kts 77°
2026-04-30 21:19 34.68591 -117.97572 18909 ft 439 kts 92°
2026-04-30 21:20 34.67859 -117.94026 19363 ft 435 kts 109°
2026-04-30 21:20 34.66641 -117.90731 20557 ft 413 kts 111°
2026-04-30 21:20 34.65411 -117.87551 20961 ft 421 kts 112°
2026-04-30 21:20 34.64127 -117.84333 21506 ft 423 kts 113°
2026-04-30 21:21 34.62846 -117.81100 22054 ft 427 kts 112°
2026-04-30 21:21 34.61574 -117.77831 22579 ft 430 kts 112°
2026-04-30 21:21 34.58996 -117.71268 23616 ft 437 kts 112°
2026-04-30 21:22 34.57677 -117.67935 24057 ft 440 kts 112°
2026-04-30 21:22 34.54106 -117.58867 25226 ft 449 kts 112°
2026-04-30 21:23 34.52801 -117.55573 25647 ft 452 kts 112°
2026-04-30 21:23 34.51435 -117.52122 26076 ft 455 kts 112°
2026-04-30 21:23 34.48671 -117.45142 26933 ft 462 kts 112°
2026-04-30 21:24 34.47275 -117.41628 27353 ft 465 kts 112°
2026-04-30 21:24 34.45863 -117.38075 27765 ft 468 kts 112°
2026-04-30 21:24 34.44443 -117.34503 28177 ft 471 kts 112°
2026-04-30 21:24 34.43015 -117.30917 28589 ft 475 kts 112°
2026-04-30 21:25 34.40139 -117.23705 29365 ft 481 kts 112°
2026-04-30 21:25 34.38678 -117.20049 29762 ft 484 kts 112°
2026-04-30 21:25 34.37201 -117.16359 30116 ft 487 kts 112°
2026-04-30 21:26 34.34228 -117.08935 30802 ft 493 kts 112°
2026-04-30 21:26 34.32731 -117.05207 31292 ft 491 kts 112°
2026-04-30 21:27 34.30264 -116.97577 32248 ft 485 kts 106°
2026-04-30 21:27 34.29101 -116.93742 32762 ft 484 kts 107°
2026-04-30 21:27 34.27912 -116.89925 33278 ft 484 kts 107°
2026-04-30 21:28 34.25573 -116.82368 34201 ft 481 kts 107°
2026-04-30 21:28 34.24407 -116.78569 34626 ft 481 kts 107°
2026-04-30 21:28 34.22055 -116.71003 35472 ft 480 kts 107°
2026-04-30 21:29 34.20884 -116.67229 35886 ft 480 kts 107°
2026-04-30 21:29 34.17363 -116.55902 36842 ft 487 kts 107°
2026-04-30 21:30 34.14932 -116.48106 36885 ft 505 kts 107°
2026-04-30 21:31 34.11111 -116.35913 36915 ft 527 kts 108°
2026-04-30 21:31 34.08490 -116.27574 36917 ft 535 kts 108°
2026-04-30 21:32 34.04506 -116.14944 36905 ft 541 kts 108°
2026-04-30 21:32 34.01817 -116.06448 36877 ft 542 kts 108°
2026-04-30 21:33 33.97780 -115.93740 36847 ft 541 kts 108°
2026-04-30 21:34 33.95085 -115.85285 36845 ft 540 kts 108°
2026-04-30 21:34 33.91037 -115.72624 36838 ft 540 kts 108°
2026-04-30 21:35 33.88347 -115.64241 36830 ft 540 kts 108°
2026-04-30 21:35 33.85635 -115.55814 36826 ft 540 kts 108°
2026-04-30 21:36 33.82918 -115.47394 36826 ft 539 kts 109°
2026-04-30 21:37 33.77470 -115.30590 36814 ft 538 kts 109°
2026-04-30 21:37 33.74743 -115.22212 36814 ft 538 kts 109°
2026-04-30 21:38 33.72013 -115.13851 36801 ft 537 kts 109°
2026-04-30 21:38 33.69281 -115.05504 36807 ft 537 kts 110°
2026-04-30 21:39 33.66539 -114.97153 36807 ft 537 kts 110°
2026-04-30 21:39 33.63793 -114.88808 36808 ft 537 kts 110°
2026-04-30 21:40 33.61037 -114.80457 36811 ft 538 kts 110°
2026-04-30 21:40 33.58838 -114.71961 36805 ft 537 kts 100°
2026-04-30 21:41 33.57632 -114.63098 36812 ft 539 kts 99°
2026-04-30 21:41 33.56117 -114.54257 36812 ft 543 kts 101°
2026-04-30 21:42 33.54767 -114.45335 36805 ft 545 kts 99°
2026-04-30 21:42 33.53315 -114.36449 36790 ft 546 kts 102°
2026-04-30 21:43 33.52113 -114.28956 36793 ft 547 kts 101°
2026-04-30 21:43 33.50446 -114.18537 36792 ft 549 kts 102°
2026-04-30 21:44 33.48984 -114.09552 36788 ft 550 kts 102°
2026-04-30 21:44 33.47524 -114.00526 36787 ft 551 kts 102°
2026-04-30 21:45 33.46035 -113.91475 36786 ft 553 kts 102°
2026-04-30 21:45 33.44567 -113.82492 36779 ft 554 kts 103°
2026-04-30 21:46 33.43064 -113.73425 36773 ft 555 kts 103°
2026-04-30 21:46 33.41565 -113.64365 36769 ft 556 kts 104°
2026-04-30 21:47 33.40046 -113.55272 36768 ft 557 kts 104°
2026-04-30 21:47 33.38526 -113.46179 36758 ft 558 kts 104°
2026-04-30 21:48 33.36992 -113.37068 36761 ft 559 kts 105°
2026-04-30 21:48 33.35450 -113.27942 36765 ft 560 kts 105°
2026-04-30 21:49 33.33901 -113.18821 36761 ft 560 kts 105°
2026-04-30 21:49 33.32350 -113.09735 36760 ft 561 kts 106°
2026-04-30 21:50 33.30786 -113.00610 36775 ft 561 kts 106°
2026-04-30 21:50 33.29212 -112.91473 36778 ft 561 kts 107°
2026-04-30 21:51 33.27633 -112.82339 36785 ft 562 kts 107°
2026-04-30 21:51 33.26040 -112.73175 36790 ft 564 kts 108°
2026-04-30 21:52 33.24443 -112.64018 36781 ft 561 kts 108°
2026-04-30 21:52 33.23109 -112.56423 36782 ft 563 kts 108°
2026-04-30 21:53 33.21497 -112.47259 36770 ft 565 kts 109°
2026-04-30 21:53 33.19602 -112.36550 36768 ft 567 kts 109°
2026-04-30 21:54 33.18230 -112.28829 36760 ft 568 kts 109°
2026-04-30 21:54 33.16585 -112.19611 36760 ft 568 kts 109°
2026-04-30 21:55 33.14943 -112.10449 36772 ft 568 kts 110°
2026-04-30 21:55 33.13281 -112.01219 36787 ft 569 kts 110°
2026-04-30 21:56 33.11610 -111.91981 36795 ft 570 kts 110°
2026-04-30 21:56 33.09932 -111.82742 36809 ft 570 kts 110°
2026-04-30 21:57 33.08245 -111.73498 36813 ft 571 kts 110°
2026-04-30 21:57 33.06548 -111.64239 36810 ft 572 kts 110°
2026-04-30 21:58 33.04844 -111.54981 36793 ft 572 kts 110°
2026-04-30 21:58 33.03130 -111.45720 36785 ft 572 kts 110°
2026-04-30 21:59 33.01413 -111.36467 36768 ft 572 kts 111°
2026-04-30 22:00 32.98828 -111.22628 36763 ft 573 kts 111°
2026-04-30 22:00 32.96215 -111.08725 36765 ft 574 kts 111°
2026-04-30 22:01 32.94465 -110.99458 36781 ft 568 kts 111°
2026-04-30 22:01 32.92744 -110.90374 36757 ft 562 kts 111°
2026-04-30 22:02 32.90999 -110.81259 36758 ft 566 kts 111°
2026-04-30 22:02 32.89253 -110.72095 36750 ft 569 kts 111°
2026-04-30 22:03 32.87479 -110.62901 36755 ft 571 kts 110°
2026-04-30 22:03 32.85704 -110.53669 36748 ft 573 kts 110°
2026-04-30 22:04 32.83906 -110.44414 36758 ft 574 kts 110°
2026-04-30 22:05 32.81218 -110.30606 36754 ft 575 kts 110°
2026-04-30 22:05 32.79399 -110.21319 36754 ft 577 kts 110°
2026-04-30 22:06 32.77570 -110.12012 36759 ft 578 kts 110°
2026-04-30 22:06 32.74823 -109.98106 36787 ft 574 kts 110°
2026-04-30 22:07 32.73003 -109.88947 36779 ft 571 kts 110°
2026-04-30 22:07 32.71172 -109.79783 36800 ft 571 kts 110°
2026-04-30 22:08 32.69330 -109.70579 36810 ft 573 kts 110°
2026-04-30 22:08 32.67470 -109.61341 36810 ft 577 kts 110°
2026-04-30 22:09 32.65596 -109.52055 36792 ft 580 kts 110°
2026-04-30 22:09 32.63705 -109.42737 36769 ft 582 kts 110°
2026-04-30 22:10 32.61807 -109.33406 36742 ft 582 kts 110°
2026-04-30 22:10 32.59895 -109.24056 36732 ft 583 kts 110°
2026-04-30 22:11 32.57020 -109.10054 36745 ft 582 kts 110°
2026-04-30 22:12 32.55090 -109.00719 36757 ft 584 kts 111°
2026-04-30 22:12 32.53151 -108.91358 36817 ft 586 kts 111°
2026-04-30 22:13 32.51209 -108.82037 36870 ft 587 kts 111°
2026-04-30 22:13 32.49248 -108.72645 36911 ft 588 kts 111°
2026-04-30 22:14 32.47273 -108.63232 36922 ft 590 kts 111°
2026-04-30 22:14 32.45285 -108.53797 36916 ft 590 kts 111°
2026-04-30 22:15 32.43287 -108.44349 36875 ft 592 kts 111°
2026-04-30 22:15 32.41277 -108.34884 36860 ft 593 kts 111°
2026-04-30 22:16 32.39258 -108.25410 36876 ft 594 kts 111°
2026-04-30 22:17 32.35184 -108.06413 36848 ft 596 kts 111°
2026-04-30 22:17 32.32114 -107.92195 36918 ft 598 kts 111°
2026-04-30 22:18 32.29006 -107.77884 36983 ft 600 kts 111°
2026-04-30 22:19 32.25869 -107.63520 36979 ft 603 kts 111°
2026-04-30 22:20 32.22702 -107.49112 36912 ft 605 kts 111°
2026-04-30 22:20 32.19519 -107.34710 36842 ft 607 kts 111°
2026-04-30 22:21 32.17374 -107.25054 36859 ft 609 kts 111°
2026-04-30 22:21 32.15216 -107.15377 36897 ft 610 kts 110°
2026-04-30 22:22 32.13052 -107.05709 36928 ft 610 kts 110°
2026-04-30 22:22 32.10877 -106.96032 36934 ft 610 kts 110°
2026-04-30 22:23 32.08693 -106.86349 36918 ft 610 kts 110°
2026-04-30 22:23 32.06502 -106.76673 36948 ft 610 kts 110°
2026-04-30 22:24 32.04304 -106.67005 36978 ft 610 kts 110°
2026-04-30 22:24 32.02117 -106.57424 36967 ft 610 kts 111°
2026-04-30 22:25 31.99903 -106.47757 36949 ft 609 kts 111°
2026-04-30 22:25 31.97692 -106.38139 36996 ft 609 kts 111°
2026-04-30 22:26 31.94588 -106.23601 36980 ft 615 kts 105°
2026-04-30 22:27 31.93215 -106.13633 36939 ft 617 kts 104°
2026-04-30 22:27 31.90941 -105.98734 36867 ft 616 kts 104°
2026-04-30 22:28 31.88741 -105.83850 36853 ft 616 kts 105°
2026-04-30 22:29 31.85761 -105.64040 36856 ft 617 kts 104°
2026-04-30 22:31 31.80422 -105.29180 36868 ft 620 kts 104°
2026-04-30 22:32 31.76548 -105.04284 36880 ft 621 kts 104°
2026-04-30 22:33 31.72605 -104.79295 36890 ft 623 kts 104°
2026-04-30 22:35 31.68610 -104.54300 36894 ft 623 kts 104°
2026-04-30 22:36 31.64575 -104.29376 36899 ft 623 kts 104°
2026-04-30 22:37 31.61302 -104.09388 36898 ft 624 kts 104°
2026-04-30 22:38 31.57994 -103.89388 36885 ft 625 kts 104°
2026-04-30 22:39 31.55484 -103.74348 36904 ft 626 kts 104°
2026-04-30 22:40 31.50417 -103.44331 36954 ft 627 kts 103°
2026-04-30 22:41 31.46126 -103.19246 36907 ft 627 kts 103°
2026-04-30 22:43 31.43492 -103.04004 36888 ft 626 kts 103°
2026-04-30 22:44 31.41777 -102.94143 36881 ft 626 kts 103°
2026-04-30 22:45 31.36820 -102.65884 36872 ft 625 kts 103°
2026-04-30 22:47 31.31526 -102.36126 36873 ft 623 kts 103°
2026-04-30 22:48 31.27961 -102.16318 36880 ft 622 kts 103°
2026-04-30 22:49 31.22568 -101.86697 36893 ft 623 kts 103°
2026-04-30 22:51 31.17089 -101.57014 36909 ft 623 kts 103°
2026-04-30 22:52 31.14322 -101.42171 36918 ft 623 kts 103°
2026-04-30 22:53 31.10605 -101.22394 36933 ft 623 kts 104°
2026-04-30 22:53 31.07813 -101.07653 36940 ft 623 kts 104°
2026-04-30 22:55 31.03096 -100.82961 36961 ft 624 kts 104°
2026-04-30 22:56 30.99286 -100.63210 36955 ft 624 kts 104°
2026-04-30 22:57 30.94492 -100.38604 36949 ft 625 kts 103°
2026-04-30 22:58 30.90610 -100.18869 36942 ft 625 kts 103°
2026-04-30 22:59 30.84723 -99.89259 36949 ft 626 kts 104°